Mt. Pocono, PA

4:13 PM EDT on June 26, 2017 (GMT -0400)
Pocono Mountains Municipal

Weather History for KMPO - May, 2013

Change the Weather History Date:

Monday, May 20, 2013

  Actual Average Record
Temperature  
Mean Temperature 64 °F 56 °F  
Max Temperature 75 °F 66 °F 87 °F (1962)
Min Temperature 53 °F 46 °F 29 °F (1992)
Degree Days  
Heating Degree Days 1 9  
Month to date heating degree days 222 234  
Since 1 July heating degree days 6667 6928  
Cooling Degree Days 0 1  
Month to date cooling degree days 0 2  
Year to date cooling degree days 1 6  
Growing Degree Days 13 (Base 50)    
Moisture  
Dew Point 59 °F    
Average Humidity 84    
Maximum Humidity 100    
Minimum Humidity 68    
Precipitation  
Precipitation 0.00 in 0.16 in 2.06 in (1988)
Month to date precipitation 1.85 2.51  
Year to date precipitation 11.34 15.62  
Sea Level Pressure  
Sea Level Pressure 30.08 in    
Wind  
Wind Speed 6 mph (SW)    
Max Wind Speed 15 mph    
Max Gust Speed 20 mph    
Visibility 5 miles    
Events Fog    
T = Trace of Precipitation, MM = Missing Value Source: NWS Daily Summary

Daily Weather History Graph

Daily Weather History Graph

Search for Another Location

Airport or City:

Trip Planner

Search our weather history database for the weather conditions in past years. The results will help you decide how hot, cold, wet, or windy it might be!

Date:

Astronomy

May. 20, 2013 Rise Set
Actual Time 5:38 AM EDT 8:17 PM EDT
Civil Twilight 5:06 AM EDT 8:49 PM EDT
Nautical Twilight 4:26 AM EDT 9:29 PM EDT
Astronomical Twilight 3:41 AM EDT 10:15 PM EDT
Moon 3:20 PM EDT (5/20) 2:35 AM EDT (5/20)
Length of Visible Light 15h 43m
Length of Day
14h 39m
Waxing Gibbous, 75% of the Moon is Illuminated
May 20
Waxing Gibbous
May 25
Full
May 31
Last Quarter
Jun 8
New
Jun 16
First Quarter

Hourly Weather History & Observations

Time (EDT) Temp. Dew Point Humidity Pressure Visibility Wind Dir Wind Speed Gust Speed Precip Events Conditions
12:53 AM 53.1 °F 53.1 °F 100% 30.17 in 0.2 mi SE 3.5 mph - 0.01 in Fog Fog
1:53 AM 54.0 °F 53.1 °F 97% 30.14 in 0.2 mi South 3.5 mph - N/A Fog Fog
2:53 AM 54.0 °F 53.1 °F 97% 30.12 in 0.2 mi Calm Calm - N/A Fog Fog
3:19 AM 55.4 °F 53.6 °F 94% 30.11 in 0.5 mi Calm Calm - N/A Fog Fog
3:53 AM 55.0 °F 54.0 °F 96% 30.12 in 0.5 mi Calm Calm - N/A Fog Fog
4:05 AM 55.4 °F 55.4 °F 100% 30.11 in 0.2 mi Calm Calm - N/A Fog Fog
4:53 AM 57.9 °F 57.0 °F 97% 30.09 in 0.2 mi SW 4.6 mph - N/A Fog Fog
5:04 AM 59.0 °F 57.2 °F 94% 30.10 in 0.5 mi WSW 4.6 mph - N/A Fog Fog
5:19 AM 59.0 °F 57.2 °F 94% 30.09 in 1.2 mi Calm Calm - N/A   Overcast
5:40 AM 59.0 °F 57.2 °F 94% 30.09 in 2.5 mi WSW 3.5 mph - N/A   Overcast
5:51 AM 59.0 °F 57.2 °F 94% 30.09 in 1.0 mi WSW 3.5 mph - N/A   Overcast
5:53 AM 59.0 °F 57.9 °F 96% 30.09 in 1.0 mi WSW 3.5 mph - N/A   Overcast
6:00 AM 59.0 °F 57.2 °F 94% 30.10 in 0.8 mi WSW 3.5 mph - N/A   Overcast
6:20 AM 60.8 °F 59.0 °F 94% 30.11 in 0.2 mi West 8.1 mph - N/A Fog Fog
6:50 AM 60.8 °F 59.0 °F 94% 30.11 in 1.0 mi West 5.8 mph - N/A   Overcast
6:53 AM 60.1 °F 59.0 °F 96% 30.11 in 1.5 mi West 6.9 mph - N/A   Overcast
7:16 AM 60.8 °F 59.0 °F 94% 30.11 in 0.5 mi West 8.1 mph - N/A Fog Fog
7:46 AM 60.8 °F 59.0 °F 94% 30.12 in 1.0 mi West 10.4 mph - N/A   Overcast
7:53 AM 60.1 °F 59.0 °F 96% 30.12 in 0.8 mi West 9.2 mph - N/A   Overcast
8:30 AM 60.8 °F 60.8 °F 100% 30.12 in 1.2 mi Variable 5.8 mph - N/A   Overcast
8:38 AM 60.8 °F 59.0 °F 94% 30.12 in 3.0 mi West 6.9 mph - N/A   Overcast
8:53 AM 61.0 °F 60.1 °F 97% 30.12 in 6.0 mi WSW 5.8 mph - N/A   Overcast
10:42 AM 64.4 °F 60.8 °F 88% 30.12 in 8.0 mi WNW 9.2 mph - N/A   Overcast
10:53 AM 64.0 °F 61.0 °F 90% 30.11 in 9.0 mi WNW 5.8 mph - N/A   Overcast
11:25 AM 64.4 °F 60.8 °F 88% 30.11 in 10.0 mi West 6.9 mph - N/A   Overcast
11:53 AM 66.9 °F 61.0 °F 81% 30.10 in 10.0 mi Variable 6.9 mph - N/A   Overcast
12:01 PM 68.0 °F 60.8 °F 78% 30.10 in 10.0 mi WSW 8.1 mph - N/A   Overcast
12:53 PM 71.1 °F 60.1 °F 68% 30.07 in 10.0 mi WNW 4.6 mph - N/A   Overcast
1:12 PM 71.6 °F 60.8 °F 69% 30.09 in 10.0 mi SW 6.9 mph - N/A   Overcast
1:53 PM 73.0 °F 62.1 °F 68% 30.05 in 10.0 mi South 4.6 mph - N/A   Overcast
2:53 PM 72.0 °F 63.0 °F 73% 30.05 in 10.0 mi SE 8.1 mph - N/A   Overcast
3:53 PM 73.0 °F 63.0 °F 71% 30.03 in 10.0 mi East 6.9 mph - N/A   Mostly Cloudy
4:05 PM 73.4 °F 62.6 °F 69% 30.04 in 10.0 mi SSW 5.8 mph - N/A   Overcast
4:45 PM 73.4 °F 62.6 °F 69% 30.04 in 10.0 mi South 10.4 mph - N/A   Mostly Cloudy
4:53 PM 73.0 °F 62.1 °F 68% 30.02 in 10.0 mi South 10.4 mph - N/A   Mostly Cloudy
5:53 PM 73.0 °F 62.1 °F 68% 30.01 in 10.0 mi South 8.1 mph - N/A   Mostly Cloudy
6:34 PM 71.6 °F 62.6 °F 73% 30.03 in 10.0 mi SSW 8.1 mph - N/A   Mostly Cloudy
6:41 PM 73.4 °F 62.6 °F 69% 30.03 in 10.0 mi SW 9.2 mph - N/A   Mostly Cloudy
6:53 PM 73.0 °F 62.1 °F 68% 30.01 in 10.0 mi SSW 8.1 mph - N/A   Mostly Cloudy
7:53 PM 68.0 °F 62.1 °F 81% 30.01 in 10.0 mi SSW 4.6 mph - N/A   Clear
8:53 PM 66.9 °F 61.0 °F 81% 30.02 in 10.0 mi SW 4.6 mph - N/A   Clear
10:53 PM 64.9 °F 62.1 °F 90% 30.02 in 5.0 mi West 5.8 mph - N/A   Clear
11:53 PM 64.0 °F 63.0 °F 96% 30.01 in 3.0 mi West 5.8 mph - N/A   Clear